NS7V-1 Lummi Island WA US current weather conditions

sailwx.info

Wind from 160 at 0 knots gusting 4

Air temperature 16.7° C
Dewpoint 12.6° C

Last reported at 2020-Jul-06 19:55 UTC.
Time now 2020-Jul-06 20:43 UTC

Location: N 48°44' W 122°42'.
View on Google Maps.

See reports from other nearby stations

  
Tides and Currents Weather Stations Pressure Air Temp Water Temp Dewpoint Dewpoint Depression Visibility Wind Speed Wind Dir Waves Ship Positions
date/time (UTC)wind fromknots sea level pressurealtimeterstation pressurevisibilityair tempwater tempwave heightnotes
2020-Jul-06 19:55 160 0 gusting 4 16.7
2020-Jul-06 19:45 164 1 gusting 5 16.7
2020-Jul-06 19:35 168 1 gusting 5 18.3
2020-Jul-06 19:25 164 2 gusting 6 17.8
2020-Jul-06 19:15 178 2 gusting 7 17.8
2020-Jul-06 19:05 167 1 gusting 6 17.8
2020-Jul-06 18:55 168 1 gusting 6 16.7
2020-Jul-06 18:45 169 2 gusting 7 16.7
2020-Jul-06 18:35 160 3 gusting 8 16.7
2020-Jul-06 18:25 174 2 gusting 6 16.7
2020-Jul-06 18:15 163 2 gusting 6 16.7
2020-Jul-06 18:05 184 1 gusting 6 16.7
2020-Jul-06 17:55 171 2 gusting 6 16.7
2020-Jul-06 17:45 176 0 gusting 6 16.7
2020-Jul-06 17:35 162 1 gusting 6 16.1
2020-Jul-06 17:25 184 1 gusting 6 16.7
2020-Jul-06 17:15 174 1 gusting 6 15.6
2020-Jul-06 17:05 171 2 gusting 10 14.4
2020-Jul-06 16:55 166 4 gusting 10 13.9
2020-Jul-06 16:45 171 3 gusting 8 13.9
2020-Jul-06 16:35 163 1 gusting 6 13.9
2020-Jul-06 16:25 166 2 gusting 6 13.3
2020-Jul-06 16:15 173 2 gusting 6 12.8
2020-Jul-06 16:05 166 2 gusting 7 12.8
2020-Jul-06 15:55 164 2 gusting 6 12.8
2020-Jul-06 15:45 164 2 gusting 7 12.8
2020-Jul-06 15:35 167 3 gusting 8 12.8
2020-Jul-06 15:25 169 3 gusting 8 12.2
2020-Jul-06 15:15 167 1 gusting 7 12.2
2020-Jul-06 15:05 168 2 gusting 6 12.2
2020-Jul-06 14:55 173 2 gusting 7 12.2
2020-Jul-06 14:45 165 2 gusting 7 12.2
2020-Jul-06 14:35 168 2 gusting 6 12.2
2020-Jul-06 14:25 167 2 gusting 6 12.2
2020-Jul-06 14:15 169 1 gusting 6 11.7
2020-Jul-06 14:05 163 2 gusting 6 11.1
2020-Jul-06 13:55 163 1 gusting 6 11.1
2020-Jul-06 13:45 172 0 gusting 6 11.1
2020-Jul-06 13:35 161 2 gusting 6 11.1
2020-Jul-06 13:25 165 1 gusting 6 10.6
2020-Jul-06 13:15 169 1 gusting 5 10.6
2020-Jul-06 13:05 176 1 gusting 6 10.6
2020-Jul-06 12:55 174 1 gusting 6 10.6
2020-Jul-06 12:45 179 0 gusting 6 10.6
2020-Jul-06 12:35 176 0 gusting 6 10.6
2020-Jul-06 12:25 187 10.0
2020-Jul-06 12:15 200 10.0
2020-Jul-06 12:05 165 10.0
2020-Jul-06 11:55 162 10.0
2020-Jul-06 11:45 165 10.0
2020-Jul-06 11:35 162 10.0
2020-Jul-06 11:25 170 0 gusting 3 10.0
2020-Jul-06 11:15 161 10.0
2020-Jul-06 11:05 165 10.6
2020-Jul-06 10:55 174 1 gusting 5 10.6
2020-Jul-06 10:45 162 0 gusting 4 10.0
2020-Jul-06 10:35 165 10.0
2020-Jul-06 10:25 162 0 gusting 3 10.0
2020-Jul-06 10:15 161 0 gusting 5 10.0
2020-Jul-06 10:05 166 1 gusting 6 10.0
2020-Jul-06 09:55 173 10.0
2020-Jul-06 09:45 167 0 gusting 4 10.0
2020-Jul-06 09:35 155 10.0
2020-Jul-06 09:25 137 10.0
2020-Jul-06 09:15 159 10.0
2020-Jul-06 09:05 162 10.0
2020-Jul-06 08:55 171 0 gusting 3 10.0
2020-Jul-06 08:45 162 10.0
2020-Jul-06 08:35 165 10.0
2020-Jul-06 08:25 183 10.0
2020-Jul-06 08:15 175 10.0
2020-Jul-06 08:05 10.0
2020-Jul-06 07:55 105 10.0
2020-Jul-06 07:45 155 10.0
2020-Jul-06 07:35 153 10.0
2020-Jul-06 07:25 157 10.0
2020-Jul-06 07:15 164 10.6
2020-Jul-06 07:05 153 10.6
2020-Jul-06 06:55 163 10.6
2020-Jul-06 06:45 167 10.6
2020-Jul-06 06:35 178 10.6
2020-Jul-06 06:25 168 10.6
2020-Jul-06 06:15 145 10.6
2020-Jul-06 06:05 159 10.6
2020-Jul-06 05:55 160 11.1
2020-Jul-06 05:45 157 11.1
2020-Jul-06 05:35 165 11.1
2020-Jul-06 05:25 163 11.1
2020-Jul-06 05:15 11.1
2020-Jul-06 05:05 161 11.1
2020-Jul-06 04:55 157 11.7
2020-Jul-06 04:45 157 11.7
2020-Jul-06 04:35 168 12.2
2020-Jul-06 04:25 220 12.2
2020-Jul-06 04:15 171 12.8
2020-Jul-06 04:05 200 12.8
2020-Jul-06 03:55 175 13.3
2020-Jul-06 03:45 217 13.9
2020-Jul-06 03:35 222 14.4
2020-Jul-06 03:25 191 14.4
2020-Jul-06 03:15 179 14.4
2020-Jul-06 03:05 165 15.0
2020-Jul-06 02:55 192 15.0
2020-Jul-06 02:45 210 15.0
2020-Jul-06 02:35 206 15.0
2020-Jul-06 02:25 180 15.6
2020-Jul-06 02:15 160 15.6
2020-Jul-06 02:05 188 16.7
2020-Jul-06 01:55 157 17.2
2020-Jul-06 01:45 178 18.3
2020-Jul-06 01:35 185 18.3
2020-Jul-06 01:25 162 18.9
2020-Jul-06 01:15 160 0 gusting 4 18.9
2020-Jul-06 01:05 155 0 gusting 3 18.9
2020-Jul-06 00:55 157 19.4
2020-Jul-06 00:45 164 0 gusting 2 19.4
2020-Jul-06 00:35 155 19.4
2020-Jul-06 00:25 167 18.9
2020-Jul-06 00:15 157 1 gusting 5 19.4
2020-Jul-06 00:05 148 0 gusting 3 19.4
2020-Jul-05 23:55 153 1 gusting 3 19.4
2020-Jul-05 23:45 160 20.0
2020-Jul-05 23:35 159 0 gusting 2 19.4
2020-Jul-05 23:25 160 19.4
2020-Jul-05 23:15 158 1 gusting 4 19.4
2020-Jul-05 23:05 152 1 gusting 4 19.4
2020-Jul-05 22:55 163 1 gusting 5 20.0
2020-Jul-05 22:45 158 1 gusting 4 20.0
2020-Jul-05 22:35 154 1 gusting 5 20.6
2020-Jul-05 22:25 149 2 gusting 5 20.0
2020-Jul-05 22:15 158 1 gusting 4 20.6
2020-Jul-05 22:05 139 1 gusting 4 20.6
2020-Jul-05 21:55 165 0 gusting 4 20.6
2020-Jul-05 21:45 148 0 gusting 4 20.6
2020-Jul-05 21:35 170 1 gusting 4 20.6
2020-Jul-05 21:25 103 20.0
2020-Jul-05 21:15 044 0 gusting 4 20.6
2020-Jul-05 21:05 107 0 gusting 4 20.6
2020-Jul-05 20:55 154 0 gusting 5 20.0
2020-Jul-05 20:45 161 1 gusting 5 19.4
2020-Jul-05 20:35 164 0 gusting 6 19.4
2020-Jul-05 20:25 157 1 gusting 5 19.4
2020-Jul-05 20:15 115 0 gusting 4 19.4
2020-Jul-05 20:05 230 0 gusting 4 19.4
2020-Jul-05 19:55 163 1 gusting 5 19.4
2020-Jul-05 19:45 157 2 gusting 5 18.9
2020-Jul-05 19:35 152 1 gusting 4 18.9
2020-Jul-05 19:25 157 1 gusting 5 18.9
2020-Jul-05 19:15 154 1 gusting 4 18.9
2020-Jul-05 19:05 157 0 gusting 4 18.3
2020-Jul-05 18:55 151 1 gusting 6 17.8
2020-Jul-05 18:45 152 2 gusting 6 17.8
2020-Jul-05 18:35 150 1 gusting 4 17.8
2020-Jul-05 18:25 144 1 gusting 4 17.8
2020-Jul-05 18:15 151 1 gusting 4 17.8
2020-Jul-05 18:05 160 1 gusting 4 17.8
2020-Jul-05 17:55 160 0 gusting 3 17.8
2020-Jul-05 17:45 156 1 gusting 4 17.2
2020-Jul-05 17:35 156 0 gusting 3 17.2
2020-Jul-05 17:25 162 1 gusting 4 16.7
2020-Jul-05 17:15 162 0 gusting 4 16.7
2020-Jul-05 17:05 161 16.7
2020-Jul-05 16:55 158 0 gusting 4 15.6
2020-Jul-05 16:45 163 0 gusting 3 15.6
2020-Jul-05 16:35 163 0 gusting 3 15.0
2020-Jul-05 16:25 155 1 gusting 4 15.0
2020-Jul-05 16:15 160 0 gusting 3 15.6
2020-Jul-05 16:05 155 0 gusting 2 15.0
2020-Jul-05 15:55 161 14.4
2020-Jul-05 15:45 151 13.9
2020-Jul-05 15:35 144 0 gusting 2 13.3
2020-Jul-05 15:25 161 0 gusting 2 13.3
2020-Jul-05 15:15 154 0 gusting 2 13.3
2020-Jul-05 15:05 156 13.3
2020-Jul-05 14:55 172 12.8
2020-Jul-05 14:45 146 12.2
2020-Jul-05 14:35 149 11.7
2020-Jul-05 14:25 152 11.7
2020-Jul-05 14:15 154 11.1
2020-Jul-05 14:05 153 10.6
2020-Jul-05 13:55 155 10.6
2020-Jul-05 13:45 10.0
2020-Jul-05 13:35 9.4
2020-Jul-05 13:25 9.4
2020-Jul-05 13:15 352 9.4
2020-Jul-05 13:05 8.9
2020-Jul-05 12:55 8.9
2020-Jul-05 12:45 8.9
2020-Jul-05 12:35 8.9
2020-Jul-05 12:25 8.9
2020-Jul-05 12:15 352 8.9
2020-Jul-05 12:05 8.9
2020-Jul-05 11:55 8.9
2020-Jul-05 11:45 8.9
2020-Jul-05 11:35 8.9
2020-Jul-05 11:25 9.4
2020-Jul-05 11:15 9.4
2020-Jul-05 11:05 9.4
2020-Jul-05 10:55 9.4
2020-Jul-05 10:45 9.4
2020-Jul-05 10:35 9.4
2020-Jul-05 10:25 9.4
2020-Jul-05 10:15 9.4
2020-Jul-05 10:05 10.0
2020-Jul-05 09:55 10.0
2020-Jul-05 09:45 10.0
2020-Jul-05 09:35 10.0
2020-Jul-05 09:25 10.0
2020-Jul-05 09:15 10.0
2020-Jul-05 09:05 10.0
2020-Jul-05 08:55 10.0
2020-Jul-05 08:45 10.0
2020-Jul-05 08:35 10.0
2020-Jul-05 08:25 10.0
2020-Jul-05 08:15 10.0
2020-Jul-05 08:05 10.6
2020-Jul-05 07:55 10.6
2020-Jul-05 07:45 10.6
2020-Jul-05 07:35 352 10.6
2020-Jul-05 07:25 352 10.6
2020-Jul-05 07:15 352 10.6
2020-Jul-05 07:05 352 10.6
2020-Jul-05 06:55 351 10.6
2020-Jul-05 06:45 352 10.6
2020-Jul-05 06:35 351 11.1
2020-Jul-05 06:25 352 11.1
2020-Jul-05 06:15 352 11.1
2020-Jul-05 06:05 352 11.1
2020-Jul-05 05:55 352 11.1
2020-Jul-05 05:45 11.1
2020-Jul-05 05:35 11.1
2020-Jul-05 05:25 11.7
2020-Jul-05 05:15 11.7
2020-Jul-05 05:05 352 11.7
2020-Jul-05 04:55 11.7
2020-Jul-05 04:45 12.2
2020-Jul-05 04:35 352 12.2
2020-Jul-05 04:25 352 12.2
2020-Jul-05 04:15 352 12.2
2020-Jul-05 04:05 12.8
2020-Jul-05 03:55 12.8
2020-Jul-05 03:45 13.3
2020-Jul-05 03:35 13.3
2020-Jul-05 03:25 13.9
2020-Jul-05 03:15 14.4
2020-Jul-05 03:05 15.0
2020-Jul-05 02:55 352 15.0
2020-Jul-05 02:45 15.0
2020-Jul-05 02:35 15.6
2020-Jul-05 02:25 012 15.6
2020-Jul-05 02:15 026 16.1
2020-Jul-05 02:05 013 16.1
2020-Jul-05 01:55 034 16.7
2020-Jul-05 01:45 016 17.2
2020-Jul-05 01:35 032 0 gusting 2 17.2
2020-Jul-05 01:25 021 17.8
2020-Jul-05 01:05 035 0 gusting 5 17.8
2020-Jul-05 00:55 022 1 gusting 5 17.8
2020-Jul-05 00:45 017 0 gusting 4 17.8
2020-Jul-05 00:35 016 1 gusting 5 17.8
2020-Jul-05 00:25 005 0 gusting 5 18.3
2020-Jul-05 00:15 040 1 gusting 6 18.3
2020-Jul-05 00:05 058 18.3
2020-Jul-04 23:55 049 0 gusting 4 18.3
2020-Jul-04 23:45 038 0 gusting 5 18.3
2020-Jul-04 23:35 031 1 gusting 4 18.3
2020-Jul-04 23:25 033 1 gusting 5 18.3
2020-Jul-04 23:15 009 0 gusting 3 18.9
2020-Jul-04 23:05 140 0 gusting 3 18.9
2020-Jul-04 22:55 031 0 gusting 5 18.3
2020-Jul-04 22:45 029 0 gusting 4 18.9
2020-Jul-04 22:35 140 0 gusting 5 18.9
2020-Jul-04 22:25 034 0 gusting 5 18.9
2020-Jul-04 22:15 052 0 gusting 6 18.3
2020-Jul-04 22:05 023 1 gusting 5 18.9
2020-Jul-04 21:55 155 0 gusting 5 18.9
2020-Jul-04 21:45 034 1 gusting 6 18.9
2020-Jul-04 21:35 128 0 gusting 4 19.4
2020-Jul-04 21:25 150 1 gusting 4 19.4
2020-Jul-04 21:15 136 0 gusting 4 18.9
2020-Jul-04 21:05 152 1 gusting 5 18.9
2020-Jul-04 20:55 145 1 gusting 3 18.3
2020-Jul-04 20:45 151 0 gusting 4 18.3
2020-Jul-04 20:35 142 0 gusting 5 18.3
2020-Jul-04 20:25 155 0 gusting 5 18.3
2020-Jul-04 20:15 153 0 gusting 4 17.8
2020-Jul-04 20:05 147 0 gusting 5 18.3